[[{"header":{"parameterUnit":"m.s-1","parameterCategory":1,"la1":30.2991,"la2":30.254,"lo1":-89.0895,"lo2":-89.0444,"dy":0.0017,"dx":0.0017,"nx":28,"ny":28,"refTime":"2024-02-24T09:00:00:Z","depth":0,"parameterNumber":2,"parameterNumberName":"U-component_of_WINDS"},"data":[0,0,0,0,0,0,0,0,0,0,0,0,0,0,0,0,0,0,0,0,0,0,0,0,0,0,0,0,0,0,0,0,0,0,0,0,0,0,0,0,0,0,0,0,0,0,0,0,0,0,0,0,0,0,0,0,0,0,1.2719,1.2718,0,1.2701,1.27,1.27,1.2665,1.2665,1.2664,1.2663,1.2644,1.2644,1.2644,0,0,0,0,0,0,0,0,0,0,0,0,0,1.2723,1.2723,1.2719,1.2718,1.2718,1.2701,1.27,1.27,1.2665,1.2664,1.2664,1.2663,1.2644,1.2644,1.2644,0,0,0,0,0,0,0,0,0,0,0,0,0,1.2715,1.2723,1.2719,1.2699,1.2697,1.2701,1.27,1.27,1.2665,1.2664,1.2663,1.2662,1.2644,1.2644,1.2644,1.2665,0,0,1.2644,1.2644,0,0,0,0,0,0,0,0,1.2715,1.2715,1.2702,1.27,1.2698,1.2684,1.2695,1.2688,1.2666,1.2677,1.2663,1.2662,1.2658,1.2657,1.2656,1.2664,1.2664,1.2644,1.2645,1.2645,1.2645,0,0,0,0,0,0,0,1.2716,1.2715,1.2711,1.2702,1.2699,1.2691,1.2688,1.2693,1.2673,1.2676,1.2674,1.2672,1.2657,1.2656,1.2655,1.2663,1.2644,1.2645,1.2645,1.2645,1.269,1.2691,0,0,0,0,0,0,1.2719,1.2716,1.2712,1.2711,1.2704,1.2691,1.2689,1.269,1.2673,1.267,1.2673,1.2671,1.2656,1.2655,1.2654,1.2679,1.2645,1.2645,1.2645,1.2689,1.269,1.2691,0,0,0,0,0,0,1.272,1.2719,1.2713,1.2713,1.2711,1.2692,1.2694,1.269,1.2689,1.2671,1.2667,1.2676,1.2655,1.2654,1.2663,1.2678,1.2645,1.2645,1.2688,1.2689,1.2691,1.2728,0,0,0,0,0,0,1.272,1.272,1.2728,1.2713,1.2711,1.2722,1.2694,1.269,1.2689,1.2686,1.2672,1.2669,1.2654,1.2663,1.2663,1.2677,1.2645,1.2686,1.2688,1.269,1.2726,1.2731,1.2736,0,0,0,0,0,1.272,1.2738,1.2728,1.2728,1.2721,1.2723,1.2722,1.2705,1.269,1.2698,1.2687,1.2669,1.2676,1.2664,1.2664,1.2679,1.2685,1.2688,1.269,1.2723,1.273,1.2735,0,0,0,0,0,0,1.2754,1.2736,1.2725,1.2739,1.2733,1.2717,1.2727,1.2712,1.271,1.2707,1.2685,1.2682,1.2694,1.2687,1.2674,1.2699,1.2678,1.268,1.2703,1.2709,1.2714,1.2716,1.2645,0,0,0,0,0,1.2764,1.2767,1.2751,1.2765,1.2763,1.2745,1.2746,1.2733,1.2726,1.2723,1.2712,1.2706,1.2707,1.2707,1.2707,1.2724,1.2721,1.2734,1.2739,1.2744,1.2746,1.2756,1.2762,1.2699,1.2699,1.2699,0,0,1.2783,1.2773,1.2777,1.2772,1.2766,1.277,1.2743,1.2749,1.2752,1.2724,1.2732,1.2724,1.2716,1.273,1.2735,1.2724,1.2763,1.2747,1.275,1.275,1.2759,1.2765,1.277,1.2701,1.2701,1.2701,0,0,1.282,1.2813,1.2824,1.2819,1.281,1.2799,1.2802,1.2789,1.2783,1.2791,1.277,1.2773,1.2775,1.277,1.2768,1.2804,1.2788,1.2805,1.2831,1.284,1.2845,1.285,1.2863,1.2869,1.2807,1.2807,1.2807,0,1.2844,1.285,1.2832,1.2839,1.2838,1.2813,1.2825,1.282,1.2812,1.2812,1.28,1.2802,1.2794,1.2807,1.2816,1.2815,1.2818,1.2806,1.2846,1.285,1.2854,1.2867,1.2872,1.2809,1.2809,1.2809,1.2809,0,1.2881,1.2886,1.2896,1.289,1.2889,1.2899,1.2882,1.2884,1.2871,1.2861,1.2871,1.2861,1.2859,1.2861,1.2848,1.2872,1.2866,1.285,1.2828,1.2862,1.2874,1.2879,1.2812,1.2812,1.2811,1.2811,0,0,1.2939,1.2923,1.2927,1.2924,1.2914,1.2917,1.2925,1.2923,1.2926,1.2921,1.2928,1.2931,1.2917,1.2914,1.2901,1.291,1.294,1.2893,1.2893,1.2903,1.2967,1.2979,1.2985,1.293,1.293,1.2931,1.2968,0,1.2974,1.2988,1.2972,1.2989,1.2994,1.2971,1.2978,1.2973,1.2964,1.2966,1.2956,1.2959,1.2939,1.2938,1.2945,1.2935,1.2953,1.2932,1.2936,1.2937,1.294,1.2991,1.3004,1.3039,1.2972,1.2973,1.2974,0,1.3016,1.3015,1.3033,1.3022,1.3023,1.303,1.3028,1.3031,1.3024,1.3017,1.3015,1.2999,1.3007,1.2986,1.2997,1.2984,1.2984,1.298,1.2981,1.298,1.2957,1.2993,1.305,1.3055,1.2981,1.298,1.298,0,1.3058,1.306,1.3071,1.3069,1.3057,1.3063,1.3058,1.305,1.305,1.3048,1.3049,1.3047,1.3047,1.3046,1.3031,1.3017,1.3044,1.3022,1.3039,1.304,1.3046,1.3046,1.3104,1.3046,1.3046,1.3046,1.3045,0,1.3099,1.3111,1.309,1.3097,1.311,1.3092,1.3105,1.3098,1.3091,1.3097,1.3077,1.3082,1.3062,1.3065,1.3053,1.3064,1.3064,1.3059,1.3056,1.3061,1.3062,1.3061,1.3059,1.3047,1.3047,1.3046,1.3046,0,1.3147,1.3133,1.3144,1.3132,1.3129,1.3139,1.3129,1.3135,1.3125,1.3132,1.3133,1.3117,1.312,1.3105,1.3105,1.3097,1.3115,1.3107,1.3117,1.3115,1.3134,1.3132,1.3194,1.3201,1.3138,1.3139,1.3139,0,1.3174,1.3183,1.3172,1.3175,1.3171,1.3175,1.3176,1.3158,1.316,1.3153,1.3161,1.3162,1.3162,1.3168,1.3157,1.3157,1.315,1.3172,1.315,1.3155,1.3151,1.3151,1.3152,1.3176,1.3177,1.3178,1.3178,0,1.3225,1.3218,1.3219,1.3219,1.3221,1.3219,1.3217,1.322,1.3201,1.3204,1.3207,1.3207,1.3208,1.321,1.3208,1.3203,1.3188,1.3185,1.3189,1.3195,1.3201,1.3199,1.313,1.3184,1.3183,1.3183,1.3182,1.3182,1.3264,1.3271,1.3265,1.3268,1.3264,1.3262,1.3268,1.3259,1.3262,1.3261,1.3251,1.3256,1.325,1.3246,1.3243,1.3247,1.3237,1.3243,1.3244,1.3246,1.325,1.32,1.3247,1.3246,1.3246,1.3246,1.3246,0,1.3314,1.3309,1.3312,1.3309,1.3312,1.3297,1.3294,1.3297,1.3302,1.3298,1.3299,1.3303,1.3306,1.3295,1.3296,1.3301,1.3294,1.3302,1.3302,1.3301,1.3258,1.3255,1.3308,1.3308,1.3308,1.3308,1.3308,1.3308,1.334,1.3352,1.3344,1.3355,1.3349,1.3355,1.3354,1.3353,1.335,1.3356,1.3358,1.3351,1.3344,1.3344,1.3346,1.3343,1.3344,1.3355,1.3349,1.331,1.3304,1.3298,1.3295,1.3355,1.3355,1.3392,1.3392,1.3392]},{"header":{"parameterUnit":"m.s-1","parameterCategory":1,"la1":30.2991,"la2":30.254,"lo1":-89.0895,"lo2":-89.0444,"dy":0.0017,"dx":0.0017,"nx":28,"ny":28,"refTime":"2024-02-24T09:00:00:Z","depth":0,"parameterNumber":3,"parameterNumberName":"V-component_of_WINDS"},"data":[0,0,0,0,0,0,0,0,0,0,0,0,0,0,0,0,0,0,0,0,0,0,0,0,0,0,0,0,0,0,0,0,0,0,0,0,0,0,0,0,0,0,0,0,0,0,0,0,0,0,0,0,0,0,0,0,0,0,-2.6017,-2.6018,0,-2.6113,-2.6115,-2.6116,-2.6108,-2.6106,-2.6105,-2.6103,-2.6202,-2.6205,-2.6209,0,0,0,0,0,0,0,0,0,0,0,0,0,-2.5826,-2.5829,-2.6017,-2.6018,-2.6019,-2.6113,-2.6115,-2.6116,-2.6108,-2.6106,-2.6104,-2.6103,-2.62,-2.6205,-2.621,0,0,0,0,0,0,0,0,0,0,0,0,0,-2.5914,-2.583,-2.6017,-2.6027,-2.6028,-2.6113,-2.6115,-2.6116,-2.6108,-2.6106,-2.6104,-2.6102,-2.6199,-2.6205,-2.621,-2.6291,0,0,-2.6229,-2.6231,0,0,0,0,0,0,0,0,-2.5909,-2.5921,-2.6024,-2.6026,-2.6028,-2.6096,-2.6083,-2.6175,-2.6109,-2.6078,-2.6103,-2.6101,-2.6168,-2.6177,-2.62,-2.6296,-2.63,-2.6229,-2.6233,-2.6235,-2.6237,0,0,0,0,0,0,0,-2.5903,-2.5917,-2.6055,-2.6025,-2.6028,-2.6026,-2.6037,-2.6101,-2.6134,-2.608,-2.608,-2.6092,-2.6169,-2.6194,-2.6202,-2.6301,-2.6229,-2.6234,-2.6238,-2.624,-2.647,-2.6473,0,0,0,0,0,0,-2.5895,-2.5912,-2.6052,-2.6058,-2.5962,-2.6032,-2.6043,-2.6077,-2.6133,-2.614,-2.6093,-2.6091,-2.6185,-2.6195,-2.6205,-2.6305,-2.6235,-2.6241,-2.6244,-2.6468,-2.6471,-2.6474,0,0,0,0,0,0,-2.5891,-2.5907,-2.6048,-2.5985,-2.6003,-2.6037,-2.6075,-2.608,-2.6104,-2.6143,-2.6149,-2.6113,-2.6183,-2.6197,-2.627,-2.6308,-2.6244,-2.6249,-2.6465,-2.6469,-2.6472,-2.6503,0,0,0,0,0,0,-2.5885,-2.5906,-2.5936,-2.5986,-2.6006,-2.6111,-2.6077,-2.6083,-2.6115,-2.6112,-2.6163,-2.6169,-2.6183,-2.6261,-2.6276,-2.6315,-2.6254,-2.6462,-2.6467,-2.6471,-2.6499,-2.6507,-2.6515,0,0,0,0,0,-2.5878,-2.5941,-2.5938,-2.5955,-2.6045,-2.6113,-2.6125,-2.614,-2.6118,-2.6149,-2.6175,-2.6167,-2.6301,-2.6269,-2.6286,-2.6327,-2.6459,-2.6465,-2.6471,-2.6495,-2.6506,-2.6515,0,0,0,0,0,0,-2.5894,-2.5947,-2.5945,-2.6025,-2.6065,-2.6112,-2.6152,-2.615,-2.6197,-2.6193,-2.6209,-2.622,-2.6294,-2.6318,-2.6281,-2.6409,-2.6378,-2.6387,-2.639,-2.6401,-2.6408,-2.6401,-2.6259,0,0,0,0,0,-2.5907,-2.5958,-2.6002,-2.6068,-2.6089,-2.6117,-2.6147,-2.6155,-2.6197,-2.6214,-2.6244,-2.6285,-2.6336,-2.637,-2.6419,-2.6502,-2.6514,-2.6539,-2.6547,-2.6553,-2.6561,-2.6608,-2.662,-2.6493,-2.6492,-2.6492,0,0,-2.5934,-2.597,-2.6001,-2.6073,-2.6104,-2.6157,-2.6131,-2.6188,-2.6227,-2.6222,-2.6294,-2.6318,-2.6364,-2.6444,-2.648,-2.6465,-2.6599,-2.656,-2.6565,-2.657,-2.6615,-2.6627,-2.6638,-2.6496,-2.6496,-2.6495,0,0,-2.6011,-2.6042,-2.6102,-2.6135,-2.6184,-2.6202,-2.6217,-2.6265,-2.6281,-2.6353,-2.6351,-2.6398,-2.6486,-2.652,-2.6548,-2.664,-2.6635,-2.6656,-2.6697,-2.6743,-2.6753,-2.6762,-2.6795,-2.6807,-2.6663,-2.6663,-2.6663,0,-2.6038,-2.6118,-2.6133,-2.619,-2.6222,-2.6221,-2.6282,-2.6313,-2.6376,-2.6398,-2.6381,-2.6493,-2.6524,-2.6611,-2.6634,-2.6657,-2.6674,-2.665,-2.675,-2.6759,-2.6768,-2.68,-2.6812,-2.6665,-2.6665,-2.6665,-2.6665,0,-2.6149,-2.6205,-2.6247,-2.6308,-2.6345,-2.6404,-2.6428,-2.6464,-2.6469,-2.649,-2.6564,-2.6602,-2.666,-2.6681,-2.6686,-2.677,-2.676,-2.6746,-2.6716,-2.6782,-2.6812,-2.6825,-2.6669,-2.6668,-2.6667,-2.6667,0,0,-2.6237,-2.6307,-2.6323,-2.6351,-2.6406,-2.6449,-2.6508,-2.6565,-2.6596,-2.6639,-2.669,-2.6765,-2.6754,-2.6787,-2.6796,-2.6836,-2.6907,-2.6818,-2.6819,-2.6834,-2.7003,-2.7013,-2.7027,-2.6905,-2.6907,-2.6909,-2.7,0,-2.6319,-2.6425,-2.6441,-2.6534,-2.6586,-2.6586,-2.6638,-2.6678,-2.6699,-2.6747,-2.677,-2.6824,-2.6804,-2.6824,-2.6864,-2.689,-2.6942,-2.6884,-2.6953,-2.6955,-2.6941,-2.7043,-2.7053,-2.7136,-2.7011,-2.7013,-2.7015,0,-2.6429,-2.6477,-2.6575,-2.6624,-2.6646,-2.6693,-2.6747,-2.6792,-2.6838,-2.685,-2.6888,-2.6893,-2.6955,-2.6922,-2.7009,-2.6969,-2.6999,-2.7016,-2.702,-2.7027,-2.6989,-2.7053,-2.7163,-2.7176,-2.7034,-2.7032,-2.7031,0,-2.6484,-2.6573,-2.6643,-2.6667,-2.6726,-2.6759,-2.6785,-2.6828,-2.6862,-2.691,-2.6932,-2.6986,-2.7016,-2.7058,-2.7078,-2.7052,-2.7164,-2.7132,-2.7177,-2.7176,-2.72,-2.7198,-2.7317,-2.7218,-2.7218,-2.7218,-2.7218,0,-2.6574,-2.6635,-2.6669,-2.6712,-2.678,-2.6799,-2.6866,-2.6891,-2.693,-2.6978,-2.6982,-2.7028,-2.7051,-2.7101,-2.7117,-2.7187,-2.72,-2.7212,-2.7216,-2.7212,-2.7211,-2.7232,-2.7226,-2.7221,-2.7221,-2.722,-2.7219,0,-2.6647,-2.6672,-2.675,-2.68,-2.6814,-2.6862,-2.6905,-2.6947,-2.6969,-2.7031,-2.7047,-2.7081,-2.7139,-2.7164,-2.7235,-2.7246,-2.7327,-2.7326,-2.7312,-2.7313,-2.7356,-2.7352,-2.7493,-2.7512,-2.7401,-2.7402,-2.7402,0,-2.6703,-2.6749,-2.6805,-2.6838,-2.6866,-2.6919,-2.6954,-2.6974,-2.7011,-2.7067,-2.7103,-2.7162,-2.721,-2.7304,-2.7335,-2.739,-2.7391,-2.7436,-2.7399,-2.7394,-2.7392,-2.7389,-2.7395,-2.7443,-2.7444,-2.7445,-2.7446,0,-2.68,-2.681,-2.6861,-2.6916,-2.6958,-2.7002,-2.7045,-2.7072,-2.71,-2.7141,-2.7201,-2.7238,-2.7312,-2.7371,-2.7429,-2.7456,-2.7456,-2.7457,-2.7471,-2.7467,-2.7458,-2.7464,-2.7331,-2.7454,-2.7453,-2.7452,-2.7452,-2.7452,-2.6866,-2.6908,-2.6954,-2.7011,-2.7046,-2.7086,-2.7129,-2.7157,-2.7208,-2.727,-2.7279,-2.7344,-2.739,-2.7467,-2.7497,-2.7548,-2.7537,-2.7556,-2.7561,-2.7565,-2.7569,-2.745,-2.7559,-2.7559,-2.7558,-2.7558,-2.7558,0,-2.6964,-2.6994,-2.7045,-2.7107,-2.7151,-2.7148,-2.7196,-2.7234,-2.7291,-2.7334,-2.7382,-2.7452,-2.7509,-2.7546,-2.7604,-2.7638,-2.764,-2.7653,-2.7651,-2.7657,-2.7575,-2.7558,-2.7651,-2.7651,-2.7651,-2.7651,-2.7651,-2.7651,-2.702,-2.7091,-2.7107,-2.7197,-2.7226,-2.729,-2.7318,-2.7356,-2.7391,-2.7469,-2.7517,-2.7541,-2.7582,-2.7643,-2.7696,-2.7705,-2.7727,-2.7741,-2.775,-2.7672,-2.7663,-2.7653,-2.7638,-2.7745,-2.7745,-2.7827,-2.7828,-2.7829]}]]